This is the latest recevied weather packets stored in our database for station/object N7CW. If no packets are shown the sender has not sent any weather packets the latest 10 day(s).
| Time | Temp. | Humidity | Pressure | Rain* | Wind** | Luminosity | Snow |
|---|---|---|---|---|---|---|---|
| 1777732370 | 13.89° C | 31% | 1019.7 hPa | 0 mm | - | 194 W/m² | - |
| 1777732067 | 13.89° C | 33% | 1019.9 hPa | 0 mm | - | 206 W/m² | - |
| 1777731764 | 13.33° C | 33% | 1019.5 hPa | 0 mm | - | 190 W/m² | - |
| 1777731461 | 13.33° C | 35% | 1019.7 hPa | 0 mm | - | 170 W/m² | - |
| 1777731159 | 14.44° C | 31% | 1019.8 hPa | 0 mm | - | 153 W/m² | - |
| 1777730857 | 13.33° C | 34% | 1019.7 hPa | 0 mm | - | 140 W/m² | - |
| 1777730250 | 11.11° C | 37% | 1019.3 hPa | 0 mm | - | 112 W/m² | - |
| 1777729947 | 10.56° C | 40% | 1019.4 hPa | 0 mm | - | 92 W/m² | - |
| 1777729643 | 10° C | 40% | 1019.4 hPa | 0 mm | - | 75 W/m² | - |
| 1777729036 | 9.44° C | 39% | 1019.3 hPa | 0 mm | - | 64 W/m² | - |
| 1777728733 | 9.44° C | 39% | 1019.2 hPa | 0 mm | - | 55 W/m² | - |
| 1777728430 | 8.33° C | 40% | 1019.2 hPa | 0 mm | - | 45 W/m² | - |
| 1777728127 | 7.78° C | 40% | 1019.1 hPa | 0 mm | - | 35 W/m² | - |
| 1777727824 | 7.78° C | 40% | 1019.2 hPa | 0 mm | - | 29 W/m² | - |
| 1777727521 | 7.78° C | 41% | 1019.1 hPa | 0 mm | - | 25 W/m² | - |
| 1777727219 | 7.22° C | 41% | 1018.8 hPa | 0 mm | - | 21 W/m² | - |
| 1777726916 | 6.67° C | 42% | 1018.8 hPa | 0 mm | - | 17 W/m² | - |
| 1777726612 | 5.56° C | 45% | 1018.7 hPa | 0 mm | - | 14 W/m² | - |
| 1777725402 | 6.11° C | 44% | 1018.8 hPa | 0 mm | - | 2 W/m² | - |
| 1777725099 | 6.11° C | 44% | 1018.4 hPa | 0 mm | - | 1 W/m² | - |
| 1777724795 | 6.11° C | 44% | 1018.4 hPa | 0 mm | - | 0 W/m² | - |
| 1777724492 | 6.67° C | 43% | 1018.4 hPa | 0 mm | - | 0 W/m² | - |
| 1777724190 | 6.11° C | 44% | 1018.6 hPa | 0 mm | - | 0 W/m² | - |
| 1777723887 | 5.56° C | 46% | 1018.4 hPa | 0 mm | - | 0 W/m² | - |
| 1777723280 | 5.56° C | 46% | 1018.4 hPa | 0 mm | - | 0 W/m² | - |
* Rain latest hour (hover to see other rain measurements)
** Current wind speed in m/s (hover to see current wind gust speed)